Location: La Fredeussais
(48.1780°N, 1.3980°W)
Time: 09:39:20
(UTC+00:00)

Cosmos 1975 - Pass Details

Date: 09 May 2021
Orbit: 540 x 561 km, 82.5° (Epoch: 12 June)

Event Time Altitude Azimuth Distance (km) Brightness Sun altitude
Rises 23:02:28 0° 354° (N) 2,716 7.8 -22.9°
Reaches altitude 10° 23:04:42 10° 0° (N) 1,817 6.5 -23.0°
Enters shadow 23:08:26 49° 68° (ENE) 702 3.3 -23.1°
